User: anonymous
Location: Unspecified
(0.0000°N, 0.0000°E)
Time: 18:03:55
(UTC+02:00)
Language:

ARIANE 5 R/B - Orbit

View from above orbital plane
View from above orbital plane
View from above satellite
View from above satellite

Ground track
Ground track

The orbit data is extracted from the following two-line orbital elements,

1 28787U 05028B   14239.55135878  .00000033  00000-0  36200-3 0  5208
2 28787 006.9642 068.0604 7163929 149.6692 285.5384 02.26537534 74888
Epoch (UTC): 27 August 2014 13:13:57
Eccentricity: 0.7163929
inclination: 6.9642°
perigee height: 567 km
apogee height: 35654 km
right ascension of ascending node: 68.0604°
argument of perigee: 149.6692°
revolutions per day: 2.26537534
mean anomaly at epoch: 285.5384°
orbit number at epoch: 7488

The dashed part of the orbit path shows where the satellite is in the earth's shadow,  

DLR